Theta_e
302 302 302 302 302 303 303 304 304 304 304 300 298 301 298 299 299 310 312 310 306 298 292 293 290 291 294 298 297 296 295 293 296 294 292 292 295 294 294 294 292 294 293 293 292 293 291 295 293 297 297 298 299 306 304 305 302 304 297 300 300 307 287 284 288 291 297 298 299 300 302 299 297 297 298 296 291 293 289 287 289 283 284 282 282 282 285
302 302 302 302 302 303 303 304 304 305 304 301 300 298 299 303 302 305 311 310 304 296 285 285 285 293 296 297 296 297 296 294 293 294 293 291 294 293 294 294 295 295 295 292 290 293 284 296 295 292 297 294 302 304 303 304 299 300 297 294 301 289 291 289 282 282 284 288 293 294 298 299 294 294 295 298 298 298 297 295 290 281 287 286 280 277 284
302 302 302 302 302 303 303 304 304 305 305 304 299 296 302 303 305 304 307 309 307 296 298 295 288 294 294 296 295 296 295 297 296 295 294 296 294 295 293 295 295 294 294 293 293 294 292 290 297 297 298 297 302 302 303 304 301 305 307 309 305 292 292 287 281 277 275 274 277 281 285 289 291 297 297 298 298 296 289 282 283 280 286 289 281 282 290
302 302 302 301 302 302 303 303 304 304 305 304 300 298 300 299 287 299 300 303 304 301 304 300 297 293 293 286 294 297 294 295 297 296 295 296 295 294 295 295 296 292 294 292 291 291 294 291 292 294 294 296 300 302 304 305 304 306 307 307 303 292 296 291 287 283 282 282 285 291 294 292 286 291 294 295 297 297 294 288 282 281 285 282 287 289 291
301 301 301 301 302 302 303 303 304 304 304 305 300 300 300 303 293 291 288 298 299 297 299 298 298 291 296 284 295 293 294 296 295 296 292 295 294 295 295 294 292 291 291 290 291 292 293 296 292 293 294 297 297 302 302 302 305 306 304 306 299 293 286 293 293 293 293 294 293 296 295 292 293 292 293 296 295 295 292 283 284 290 285 281 288 292 290
301 301 301 301 301 302 302 303 304 304 304 304 301 297 303 290 294 300 301 293 287 289 290 298 297 298 296 292 297 295 293 294 287 293 295 297 295 291 293 293 293 292 292 293 285 290 292 293 287 295 295 295 297 296 299 299 305 305 302 305 300 293 286 296 294 292 295 296 295 296 295 294 295 295 294 293 294 294 290 291 293 291 282 281 288 293 291
300 300 300 301 301 301 302 303 303 304 303 304 300 297 304 304 301 300 304 294 297 296 298 301 299 296 296 290 294 295 294 291 293 293 293 294 293 295 282 290 291 292 293 291 288 291 284 284 293 292 292 295 293 292 295 298 302 301 299 300 301 294 286 294 294 292 294 294 296 296 293 293 292 293 294 294 293 291 292 291 293 294 293 293 291 290 290
300 300 300 300 301 301 302 303 303 303 303 303 300 300 298 299 298 296 303 301 298 299 297 298 296 291 295 285 294 296 293 292 294 295 294 287 293 295 292 293 293 294 293 293 289 292 294 292 286 294 293 290 293 291 293 291 297 301 300 300 301 292 286 295 294 288 290 294 294 294 293 291 288 289 292 293 292 292 292 292 292 294 293 293 293 290 288
300 300 300 300 301 301 302 302 303 303 303 300 300 305 308 307 308 306 299 294 296 296 298 295 292 288 290 288 294 295 295 295 296 294 297 296 293 293 293 293 293 295 294 293 293 296 297 296 295 297 295 287 296 288 293 296 294 296 296 298 299 295 287 295 290 282 285 292 291 290 290 289 287 287 289 291 290 288 289 288 291 290 289 291 290 287 285
300 300 300 301 301 302 302 302 303 303 303 300 303 303 312 308 311 309 303 292 295 294 296 295 291 284 291 295 294 295 294 297 294 284 294 295 295 295 295 296 292 293 292 291 293 296 296 295 296 295 295 295 295 294 295 294 293 293 293 296 290 292 287 283 284 281 282 290 292 290 290 287 284 284 286 291 291 291 291 291 291 291 292 288 285 285 291
300 300 301 301 301 302 302 303 303 304 302 299 299 302 305 305 303 304 303 291 287 291 292 291 291 293 296 297 295 296 294 294 294 286 285 293 294 296 297 295 292 289 291 294 298 297 297 298 297 296 296 295 294 293 294 296 294 293 293 292 292 292 290 284 288 281 282 286 288 288 282 276 279 290 293 293 289 288 286 286 289 291 292 290 292 291 292
300 300 300 301 301 302 302 303 303 303 303 302 301 300 303 306 306 305 294 287 285 294 292 290 291 295 295 294 293 292 292 294 294 296 293 296 297 296 295 295 292 283 296 299 298 297 299 299 298 296 296 295 295 295 295 294 294 294 296 293 290 290 287 284 288 282 281 285 285 279 273 277 288 294 294 295 292 291 288 288 290 290 292 293 291 291 290
300 300 300 301 301 302 302 303 303 303 304 303 301 298 304 307 304 301 297 293 286 291 287 291 296 295 295 296 294 293 294 295 296 297 297 295 296 296 297 295 293 295 300 296 296 296 292 291 292 295 294 294 293 294 296 296 296 297 297 297 291 284 284 285 283 283 283 281 280 274 277 287 292 292 293 295 295 293 290 287 289 291 291 292 290 291 291
300 300 301 301 301 302 302 303 303 304 304 304 301 300 302 304 302 302 298 289 288 294 295 291 293 293 295 295 294 293 293 292 292 295 294 298 294 295 297 296 297 299 297 298 296 293 287 288 283 285 287 289 289 288 293 295 295 295 295 295 295 293 289 286 282 285 279 281 282 281 287 286 286 287 289 290 287 288 287 281 285 290 291 291 291 291 292
300 300 301 301 301 302 303 303 304 304 304 305 302 302 302 305 307 303 302 297 288 290 294 285 291 294 295 294 295 290 290 291 290 288 295 298 297 300 298 297 298 298 300 294 291 292 285 284 281 279 282 280 277 279 289 287 293 296 295 295 295 293 284 288 283 280 281 281 280 281 280 278 281 288 292 295 295 294 294 288 284 291 292 293 292 290 291
300 300 301 301 302 302 303 304 304 304 305 305 303 302 304 307 310 305 302 296 293 284 290 296 296 296 293 293 295 293 288 285 288 289 292 293 295 295 296 297 299 300 297 296 294 288 284 281 280 279 278 280 278 282 279 289 287 293 293 295 295 293 292 285 283 281 280 280 278 277 277 279 284 286 290 293 294 295 295 287 281 289 291 292 292 291 291
300 301 301 301 302 303 303 304 304 305 305 306 302 301 303 312 309 304 300 300 295 285 296 297 299 298 291 287 291 289 292 285 290 283 284 287 293 294 295 298 299 299 297 294 294 287 283 282 283 282 281 288 281 280 287 284 280 283 290 291 291 286 282 282 282 280 281 279 278 274 280 279 285 288 291 293 295 295 290 280 279 287 291 291 290 288 288
300 301 301 302 302 303 304 304 305 306 306 306 303 301 303 309 310 308 305 300 290 288 294 298 296 291 289 291 290 294 296 294 293 294 287 290 292 292 293 295 295 298 300 289 289 283 282 281 280 280 280 289 288 286 277 281 280 280 280 282 281 280 280 282 279 280 281 281 277 281 282 287 289 290 293 295 297 293 282 278 281 289 289 289 288 287 287
301 301 301 302 302 303 304 305 306 306 306 306 304 305 305 309 311 310 305 303 292 283 293 298 300 297 298 299 296 297 296 296 295 286 285 285 288 294 296 298 299 287 295 289 289 283 282 283 289 286 281 283 288 279 285 281 280 286 282 279 281 281 280 282 281 280 279 279 280 279 282 286 290 293 294 295 290 281 279 285 291 290 288 289 288 287 287
300 301 302 302 303 304 304 305 306 306 307 307 304 300 304 309 310 310 305 298 293 290 293 296 299 296 298 295 292 291 293 294 294 290 288 284 293 296 290 287 294 295 291 293 282 288 283 282 284 287 282 281 284 288 283 284 288 284 283 284 282 281 280 278 277 280 283 282 279 278 274 285 292 292 293 292 284 283 288 289 290 290 289 289 289 289 288
300 301 302 302 303 304 305 306 306 307 307 307 305 303 305 310 310 312 312 308 294 286 289 298 298 297 298 296 297 297 296 293 293 291 294 294 297 291 283 284 289 290 286 286 282 283 284 281 286 284 288 285 285 287 282 283 286 290 289 284 283 286 281 281 280 282 279 279 276 276 283 287 293 291 284 289 291 292 291 290 287 290 290 289 289 290 291
301 301 302 303 304 305 305 306 306 307 307 307 306 305 304 306 310 312 305 301 291 287 291 297 298 296 298 300 299 299 300 300 303 303 297 291 298 294 292 298 296 295 294 294 289 288 292 290 291 285 282 284 289 284 288 281 280 286 291 289 280 288 283 284 281 285 281 280 283 287 291 292 294 292 291 292 293 292 291 290 290 289 289 292 290 290 292
300 301 302 303 304 304 305 306 306 307 307 307 306 306 304 306 303 306 302 295 297 298 301 299 298 297 300 300 301 302 302 305 306 304 303 295 288 296 296 294 293 300 299 298 289 289 290 290 284 288 284 285 283 282 285 282 282 287 284 291 288 292 291 292 289 285 290 291 292 293 293 293 293 294 294 292 293 293 293 291 290 290 291 292 291 292 292
300 301 302 302 303 304 305 306 306 307 307 307 305 304 306 305 306 306 301 300 292 286 290 295 291 285 293 295 299 300 301 301 304 306 308 305 289 289 297 300 303 300 297 300 299 293 289 290 289 290 283 289 290 283 280 280 281 287 287 286 290 292 293 290 284 288 286 281 291 290 291 292 292 292 294 294 294 293 293 292 292 292 293 292 293 292 292
300 301 301 302 303 304 305 306 306 307 306 306 306 308 312 307 308 307 302 287 290 286 283 285 288 296 298 300 299 298 299 302 306 306 306 306 300 294 292 299 303 297 296 298 300 294 287 285 287 285 282 289 290 282 287 284 284 291 283 286 288 286 293 288 288 287 285 284 290 291 293 292 293 292 291 291 292 293 294 294 293 293 294 293 293 293 292
300 300 301 302 303 304 305 306 306 306 305 306 307 306 308 305 308 308 307 301 297 291 283 283 289 300 298 298 297 300 303 301 301 306 308 306 307 304 302 304 302 306 302 299 296 288 286 285 284 284 284 285 291 283 283 287 288 289 286 285 289 289 293 283 287 285 288 291 291 291 292 292 292 292 292 293 292 292 293 293 293 293 292 292 293 294 293
299 300 301 302 303 304 305 305 306 305 305 306 306 309 310 306 308 306 303 303 293 284 286 283 290 295 298 296 299 300 302 301 301 301 302 304 303 304 304 301 296 295 296 295 294 289 287 285 284 285 288 287 291 289 289 287 287 284 285 289 292 289 285 288 286 283 282 283 286 289 284 284 289 291 292 293 294 293 293 293 293 292 291 291 291 292 292
299 300 301 302 303 304 305 305 306 305 305 305 308 310 311 309 308 308 308 305 299 285 284 285 287 291 297 296 299 299 301 300 301 302 300 301 301 302 299 297 296 294 294 289 285 285 285 283 286 286 285 289 288 285 289 288 288 287 288 289 291 288 288 286 283 284 284 289 291 291 290 289 291 292 293 294 295 294 293 292 292 293 293 293 292 291 292
300 300 301 302 303 304 305 305 305 305 305 305 308 309 305 308 308 308 308 311 307 300 288 290 293 294 286 293 300 297 301 302 301 300 301 299 300 299 298 298 295 295 294 289 287 286 285 286 288 287 288 293 289 284 286 282 283 283 287 291 292 293 294 292 290 290 290 292 292 291 289 288 291 294 294 295 295 294 293 294 294 293 293 293 293 293 292
299 300 301 302 303 304 305 305 305 304 304 306 308 304 295 298 306 305 306 311 308 306 288 285 282 286 298 299 298 299 299 301 302 302 299 297 296 295 296 295 294 296 294 288 286 284 287 286 287 293 297 299 288 284 281 282 283 286 291 292 292 293 293 293 293 290 289 292 292 292 290 290 291 292 294 295 295 294 293 293 293 293 294 294 293 292 292
300 300 301 302 303 304 304 305 305 305 304 307 303 291 288 285 299 307 305 309 310 305 289 287 285 291 289 296 298 295 298 298 298 298 299 298 297 296 296 296 294 294 285 286 284 287 286 284 285 288 293 293 288 284 282 282 283 285 289 291 291 291 291 291 293 293 293 292 292 292 291 291 291 290 290 291 291 292 291 292 295 297 296 296 295 294 294
300 300 301 302 303 304 304 305 305 304 303 304 299 296 296 299 304 305 304 309 310 303 287 284 284 284 284 288 298 299 299 301 302 300 297 300 295 297 295 296 292 297 291 286 287 285 284 286 285 289 288 292 289 284 283 281 282 284 289 290 291 291 292 292 292 293 293 293 292 290 290 291 291 289 287 290 290 291 291 291 291 292 294 293 293 294 294
300 301 301 302 303 303 304 305 304 303 300 302 304 303 303 303 303 304 308 309 306 297 295 286 282 283 283 289 296 300 302 299 297 296 293 298 294 295 289 296 295 294 301 289 285 284 289 285 286 285 289 291 285 284 284 281 284 290 291 291 291 292 292 292 292 293 293 294 293 287 286 287 288 290 291 291 292 292 291 292 293 293 292 291 291 291 291
300 301 301 302 303 304 304 304 304 304 305 305 303 305 307 304 303 304 310 308 303 300 292 286 283 282 283 292 291 295 301 294 291 295 286 298 298 295 289 294 293 285 291 285 288 286 287 286 283 286 288 285 285 283 281 284 289 289 290 290 291 291 292 292 292 291 291 292 292 292 290 291 291 291 290 290 290 292 294 293 293 292 291 290 290 290 291
300 301 301 302 303 304 304 304 304 305 304 306 304 305 307 304 304 304 312 304 291 286 287 287 286 282 282 283 282 290 301 295 287 292 286 292 298 293 293 285 287 284 286 296 285 284 283 285 288 282 281 286 282 280 281 287 288 289 289 289 290 290 290 289 290 291 291 291 291 291 291 291 290 288 289 290 292 293 292 291 291 291 290 289 289 290 291
300 301 302 302 303 304 304 306 304 304 303 301 302 307 305 305 307 312 311 310 303 293 286 285 286 283 284 281 281 285 299 292 294 295 293 289 292 297 294 287 283 287 293 287 283 287 283 291 285 281 285 281 280 282 285 289 289 289 289 289 289 290 289 289 289 290 291 292 292 292 292 291 290 290 290 290 291 291 292 292 290 289 289 289 289 289 289
300 301 302 302 304 304 300 297 305 305 303 305 306 303 304 307 312 308 306 305 307 302 294 288 285 286 289 283 286 287 293 282 291 287 288 286 285 287 288 284 282 285 285 284 284 282 287 294 285 281 281 280 282 288 289 289 289 289 289 290 291 291 291 290 291 290 291 292 293 292 292 290 290 291 292 291 289 290 291 290 289 288 288 289 289 289 289
301 302 300 301 301 291 290 292 302 310 306 304 303 303 298 300 289 290 291 289 296 298 290 296 286 290 291 288 282 291 291 285 292 284 285 288 285 284 287 284 283 285 280 282 286 293 287 284 282 281 281 287 289 290 290 290 291 290 290 291 292 292 292 291 291 291 289 288 287 289 289 289 288 289 290 289 289 289 289 290 290 289 290 290 290 290 290
301 300 301 302 298 289 290 299 307 302 307 305 307 293 288 291 288 286 285 288 288 286 289 291 287 291 289 287 288 294 293 285 284 286 282 288 284 281 284 281 282 284 281 282 283 291 282 281 282 281 281 286 287 288 290 291 291 291 291 290 291 291 292 293 293 292 289 288 288 288 288 287 288 289 290 289 290 291 289 289 290 291 291 290 289 290 291
301 300 293 294 291 293 303 303 302 305 303 293 292 290 285 288 285 282 288 284 284 286 288 285 292 293 292 289 287 287 295 291 282 281 283 285 291 282 284 283 285 282 278 279 281 291 281 278 281 280 280 283 285 289 290 291 290 290 291 291 292 292 292 292 292 293 290 290 291 291 291 291 291 290 290 289 290 289 290 290 290 291 291 290 290 290 291
302 301 301 291 299 302 303 304 305 303 294 289 287 286 285 282 286 286 285 282 283 284 291 292 293 291 292 292 291 286 293 297 294 292 285 282 290 288 282 280 284 280 279 279 284 285 283 280 280 279 280 284 286 288 290 290 290 290 291 292 292 292 291 290 290 290 290 289 291 291 291 291 291 291 291 291 291 289 289 290 291 290 290 290 290 291 292
296 295 297 299 299 301 302 298 294 290 287 288 283 280 283 284 286 285 285 281 282 286 290 291 286 288 288 292 292 292 289 296 291 286 284 281 285 284 281 283 284 279 276 282 284 284 282 278 279 279 282 288 289 290 290 289 290 290 291 291 291 291 291 290 290 291 292 292 291 291 290 291 291 291 290 290 290 290 291 291 291 290 291 291 291 292 293
300 300 299 297 297 291 291 287 289 287 280 280 279 278 282 280 282 282 282 286 289 288 288 298 293 295 295 297 292 294 289 294 287 285 284 282 286 286 281 281 280 277 280 285 283 281 278 277 278 280 286 288 290 290 290 290 290 291 290 291 291 292 292 291 290 290 291 292 291 291 290 291 291 291 293 291 291 290 291 291 291 291 290 291 291 292 293
301 302 298 293 288 288 289 279 287 284 281 282 280 276 279 279 281 283 282 284 287 287 292 290 289 290 284 292 289 287 288 290 289 286 284 286 283 280 280 278 279 282 286 282 281 278 279 280 281 284 287 289 291 290 290 290 290 290 290 291 291 291 291 291 291 290 291 291 292 291 292 292 292 292 293 292 291 291 291 291 291 292 291 292 292 292 293
294 290 289 286 283 286 284 273 284 282 277 279 283 281 281 279 281 282 282 286 292 289 292 293 291 291 286 291 289 289 287 284 287 283 280 284 280 281 279 279 283 283 280 278 280 280 280 279 283 287 288 288 290 290 291 291 291 290 290 291 290 290 291 291 291 291 290 290 291 291 292 292 291 291 291 292 292 292 290 291 292 292 292 292 292 293 293
290 286 284 278 273 279 282 279 280 278 282 284 282 284 284 285 286 287 292 294 291 291 290 291 291 290 285 289 284 283 286 285 283 283 284 284 279 278 283 285 283 279 279 280 277 275 277 282 284 286 289 289 290 290 291 291 292 291 291 289 290 290 290 291 291 290 290 291 291 292 291 291 291 291 292 292 291 292 292 292 291 292 292 292 293 293 293
291 288 287 284 279 282 285 279 280 282 285 286 287 288 289 290 293 292 293 294 292 292 293 294 292 290 286 286 285 286 287 286 282 284 285 279 279 281 285 281 276 278 274 274 276 278 280 283 286 288 289 290 290 291 291 291 292 291 291 291 290 291 291 291 291 291 292 291 291 291 292 292 292 292 291 291 291 292 292 292 293 293 293 293 293 294 293
286 288 287 278 275 281 280 282 288 287 288 290 289 292 294 293 291 291 295 296 294 294 292 291 287 287 287 289 289 283 284 284 282 282 284 282 283 280 278 277 277 279 280 277 277 281 284 286 287 288 290 291 291 291 291 291 292 293 292 291 291 291 292 292 292 292 293 292 291 291 292 292 292 291 290 291 290 292 293 293 293 294 293 293 294 293 293
291 286 283 282 283 283 283 285 287 285 288 289 292 292 293 292 291 292 295 295 294 293 294 291 286 286 283 286 284 283 281 284 280 279 283 281 277 273 274 272 275 274 280 281 281 285 286 288 289 291 291 291 291 292 292 292 293 293 293 293 293 293 293 292 292 292 291 292 292 292 292 291 290 290 290 291 291 292 293 293 293 293 293 292 292 292 292
288 285 287 285 284 284 287 287 287 284 288 291 290 289 290 290 291 292 296 294 294 292 291 289 288 286 285 284 281 282 281 283 282 282 280 277 278 279 278 275 277 277 280 283 283 287 289 290 291 290 291 291 291 292 292 292 291 292 293 293 293 292 292 293 292 293 293 293 294 293 291 290 290 289 290 291 292 292 292 292 292 292 293 293 293 292 292
289 287 286 289 284 283 286 282 282 283 285 287 289 289 290 290 290 291 297 296 295 289 286 284 284 284 283 281 280 277 280 284 281 280 279 278 281 279 277 276 278 281 282 286 289 290 291 291 290 290 290 291 291 292 292 292 292 293 294 294 293 293 293 293 293 292 293 294 293 290 292 291 291 291 292 291 291 291 291 291 291 292 292 292 293 293 293
286 283 283 287 290 289 289 289 289 289 289 290 292 293 293 291 293 294 298 294 290 285 284 286 285 283 280 279 280 283 284 282 280 280 279 281 283 280 279 281 281 283 287 288 288 289 290 291 291 291 291 291 291 292 292 292 292 292 292 292 293 293 293 292 293 293 294 293 293 293 294 294 294 292 291 291 290 289 289 289 291 291 291 292 293 294 294
Wind_Speed
11 11 10 11 10 11 12 13 14 14 14 6 4 5 3 3 4 7 6 8 8 4 1 3 3 4 6 12 8 3 1 4 3 2 2 1 2 2 2 3 7 6 5 5 5 9 4 6 4 2 2 3 6 3 5 7 6 5 3 1 3 2 3 4 5 3 5 7 9 9 14 6 7 8 4 6 5 0 5 3 1 2 4 5 3 4 4
11 11 11 10 10 11 12 13 14 14 9 5 6 3 2 2 2 5 5 6 7 2 2 2 4 5 10 9 5 6 3 1 2 3 1 1 2 2 1 2 2 2 3 3 4 7 2 6 9 3 5 2 6 5 10 7 4 5 1 2 5 2 1 3 3 3 5 8 9 9 8 8 3 2 5 5 3 5 0 3 2 4 1 3 6 3 3
11 10 10 10 10 11 12 12 13 13 10 6 4 3 3 1 2 5 2 3 2 4 2 2 1 2 5 3 3 1 2 3 3 7 3 2 3 1 2 2 2 0 5 4 5 4 6 2 4 10 3 2 3 7 9 7 6 5 3 7 1 5 1 2 1 1 1 1 1 1 5 5 5 1 2 4 7 6 4 2 2 4 4 4 3 3 2
11 9 10 9 10 11 12 12 12 12 11 8 2 3 3 1 0 0 2 1 2 4 3 3 3 6 3 2 2 1 1 3 6 9 5 5 4 5 2 5 2 3 10 7 3 4 3 2 3 5 2 2 3 7 9 8 5 6 6 5 5 2 2 2 2 3 2 2 2 2 4 1 2 6 6 3 5 4 4 4 4 3 0 4 2 5 8
10 10 10 10 11 11 12 13 12 11 11 10 3 3 2 2 1 2 1 2 3 5 2 4 3 3 1 1 1 3 4 1 2 6 2 5 5 5 1 1 4 2 6 2 5 7 11 15 9 4 7 4 5 9 8 8 7 4 2 7 2 2 2 1 2 1 1 3 3 5 3 2 7 7 8 12 9 6 9 5 3 1 4 2 1 3 5
10 10 10 10 11 12 12 12 11 12 10 10 3 2 2 1 3 4 1 1 2 1 5 4 4 9 3 1 1 1 5 1 2 2 4 2 4 3 1 2 3 3 4 2 0 2 6 7 3 9 7 7 4 6 5 5 6 9 5 5 3 2 2 2 6 7 8 4 5 3 9 12 10 11 11 12 11 12 10 5 4 3 2 4 2 4 7
11 10 10 11 11 12 12 13 11 11 12 8 2 1 1 2 1 3 5 2 2 9 7 2 6 7 3 0 2 2 4 5 2 2 0 1 1 1 1 3 5 11 1 4 1 2 3 3 3 3 3 1 2 2 4 6 8 6 3 4 2 1 0 1 3 2 5 3 7 7 13 11 16 12 11 11 12 11 10 10 10 10 9 10 11 13 12
11 10 10 10 11 12 12 12 11 11 13 7 3 2 2 0 2 3 5 3 8 7 5 3 7 3 3 1 2 1 3 4 4 3 3 2 1 3 2 5 3 3 4 3 4 2 6 5 3 1 0 2 2 3 3 3 3 5 1 1 1 2 0 2 2 1 3 9 14 11 12 14 14 13 12 10 10 11 11 11 11 8 8 8 9 10 10
11 10 10 10 11 12 12 12 11 11 9 2 4 2 4 2 2 2 1 4 6 4 1 1 2 3 1 1 1 2 2 1 3 6 4 2 3 5 3 8 8 5 17 13 9 9 7 4 2 3 2 2 1 3 1 2 3 3 3 1 0 1 0 2 2 1 2 6 12 12 14 15 14 12 12 10 7 9 8 9 6 6 5 7 8 6 3
11 10 10 10 11 11 12 12 12 11 10 4 4 4 1 2 4 6 3 1 6 1 3 1 2 2 2 2 1 1 4 3 5 2 5 6 6 4 6 4 7 9 12 10 6 7 8 6 4 4 6 4 4 1 1 2 2 1 2 1 2 1 2 2 1 2 2 3 8 8 5 5 5 7 9 6 10 10 11 11 13 11 5 6 5 5 5
11 10 10 11 11 12 12 12 11 10 7 4 3 5 3 1 4 3 1 1 3 1 3 3 3 1 3 4 3 3 5 8 5 3 1 4 5 5 3 5 5 4 5 4 5 6 5 2 3 5 5 6 4 4 4 3 1 3 2 3 2 3 3 3 1 2 1 0 7 4 2 3 2 1 4 4 7 9 12 9 10 11 9 6 6 7 7
11 10 10 10 11 12 12 12 11 9 6 4 4 5 5 5 5 4 1 2 5 1 2 4 2 2 3 7 6 8 8 7 6 6 5 3 3 4 4 3 5 2 2 3 3 4 3 3 2 1 3 4 4 5 5 3 2 3 7 6 3 4 3 1 2 2 3 2 4 4 2 2 3 2 6 8 13 14 13 11 12 11 10 8 9 9 9
11 10 10 11 12 12 12 12 11 11 7 4 4 6 4 5 4 4 3 0 3 3 1 4 3 4 8 4 5 7 7 7 7 8 4 4 3 3 2 4 4 2 2 4 7 2 1 2 2 3 4 6 6 3 13 14 14 13 11 10 4 3 2 1 0 1 2 2 2 2 2 5 5 6 7 3 6 5 7 12 12 11 9 7 8 9 9
11 11 11 12 13 13 14 13 13 12 10 7 6 6 7 5 2 4 3 3 6 6 7 6 9 7 4 4 4 5 6 7 4 4 3 1 4 4 2 5 2 1 5 2 1 1 2 0 0 0 1 0 1 4 5 13 10 11 10 8 7 4 1 3 0 1 2 2 5 6 6 4 6 2 5 5 3 3 3 5 6 9 8 6 5 7 7
12 12 13 13 14 14 15 15 15 14 11 9 5 7 7 6 5 4 2 1 2 5 7 4 3 5 4 4 3 4 4 4 3 1 2 2 0 0 4 7 4 4 1 1 1 0 1 0 1 2 3 4 2 1 2 2 4 8 6 4 6 5 3 1 2 1 4 6 5 4 2 3 3 4 5 4 2 0 1 3 3 7 8 8 6 5 5
13 13 14 14 15 16 15 16 16 15 12 11 5 6 8 9 8 4 2 1 1 3 3 5 5 3 1 2 1 2 3 3 5 3 2 1 1 3 4 4 3 1 2 2 1 1 3 3 0 2 1 0 1 0 1 1 2 4 9 7 5 5 5 2 3 1 3 4 4 1 1 2 2 4 6 7 6 2 0 2 3 3 6 7 6 4 4
14 14 15 15 16 16 16 16 16 15 13 10 5 5 6 4 2 1 2 2 1 1 5 8 5 3 3 3 2 2 3 1 1 3 1 2 2 6 5 3 1 0 2 2 3 3 4 4 2 2 1 1 1 0 1 2 1 5 9 7 9 8 3 4 2 0 1 4 3 3 3 1 3 5 6 6 9 1 1 2 1 3 5 6 5 5 4
15 15 16 16 16 17 16 16 16 15 13 10 4 5 6 6 6 0 1 2 0 4 4 7 8 6 4 1 2 1 3 3 3 0 1 3 4 4 4 2 0 1 1 3 2 4 3 2 2 2 2 2 0 1 2 0 3 2 3 5 3 4 4 4 2 2 5 7 3 3 3 1 1 5 6 7 1 1 1 1 2 3 6 5 5 6 6
15 16 17 17 17 17 17 16 16 16 14 12 7 4 7 7 6 2 2 1 3 2 2 2 2 8 8 7 5 4 1 2 2 2 5 3 2 3 4 2 1 1 3 1 3 2 2 1 0 1 2 3 3 2 1 3 2 1 3 4 4 4 2 2 4 5 3 1 5 4 3 2 5 6 3 4 2 1 3 2 4 7 8 7 8 10 8
16 17 18 18 18 18 17 16 16 15 15 12 6 2 8 9 7 3 0 2 3 5 6 8 7 10 6 8 7 7 7 8 5 4 2 1 3 1 2 4 6 3 6 3 3 1 3 1 1 2 3 3 2 1 4 4 4 3 1 3 2 2 2 2 2 2 1 3 5 2 2 3 9 9 2 6 2 3 5 7 8 7 8 10 9 8 7
17 18 18 19 18 18 17 17 16 15 14 12 6 3 5 4 4 3 5 2 3 5 5 6 7 8 6 7 5 6 7 6 3 3 3 2 3 2 2 2 2 1 1 1 3 0 1 2 2 2 1 2 1 2 2 2 3 7 4 3 2 4 1 2 1 1 3 3 3 3 2 3 9 6 4 4 5 7 7 7 8 6 7 7 7 6 5
18 19 19 20 19 18 17 17 17 16 14 12 8 2 2 4 4 3 5 8 6 4 2 4 3 4 6 4 5 5 7 6 2 0 2 4 6 4 5 3 0 1 1 1 2 2 1 2 1 2 3 2 1 4 2 3 3 2 6 3 4 8 3 1 5 3 2 3 3 2 1 6 8 9 10 10 11 9 8 8 8 8 6 5 6 7 7
18 19 20 19 18 18 18 18 17 16 14 13 8 1 3 2 4 4 5 7 3 1 0 1 1 3 4 4 4 4 4 2 2 2 3 3 3 5 6 3 4 1 1 1 5 6 4 2 2 4 5 3 4 5 7 3 2 4 4 6 5 3 7 5 8 10 11 9 6 5 7 10 11 9 8 9 9 9 9 9 8 6 6 5 6 7 7
18 20 20 20 19 19 19 18 18 17 17 17 8 2 2 4 6 4 2 2 2 3 6 7 4 4 3 4 3 3 3 2 2 0 2 3 2 2 2 1 1 1 1 2 6 5 4 2 3 2 5 5 5 4 4 4 3 2 3 2 2 2 2 2 6 7 2 6 3 10 12 10 11 11 10 9 9 9 8 8 8 7 7 7 7 7 6
18 19 20 20 20 20 19 19 19 18 16 17 13 5 5 3 4 5 2 2 1 3 3 2 4 1 3 1 2 3 3 3 1 3 4 3 5 4 3 1 1 3 2 1 2 3 3 4 3 3 7 4 2 6 3 6 2 3 5 0 1 6 4 10 7 7 6 8 8 9 9 10 10 8 8 9 10 11 10 8 8 8 8 8 8 7 5
18 19 19 20 20 20 20 19 19 17 17 20 12 3 2 2 3 6 2 2 3 2 4 2 2 3 2 2 5 4 4 4 2 2 2 2 1 2 2 1 1 0 0 4 7 7 4 4 3 3 4 5 3 4 3 2 6 3 5 5 2 4 3 4 3 7 7 8 9 10 10 11 11 9 7 8 8 10 11 11 11 10 10 9 7 6 6
18 19 19 19 19 19 19 19 18 18 19 16 8 5 1 3 5 6 2 1 2 4 1 2 1 2 4 6 4 3 3 3 3 4 4 4 4 4 4 4 4 6 7 6 4 5 4 5 6 7 5 4 3 4 4 7 5 4 6 6 4 7 9 8 7 9 6 6 8 7 7 6 7 10 11 10 9 10 10 8 8 7 7 6 6 5 4
18 18 19 19 19 19 18 19 18 19 18 17 8 6 3 4 4 4 3 5 3 3 4 2 3 2 2 5 4 4 6 4 1 1 2 5 7 6 7 9 9 8 6 6 7 6 4 6 6 3 3 2 5 6 4 5 4 6 5 4 4 7 8 4 4 4 6 8 8 6 8 9 9 10 11 12 11 11 11 10 9 8 7 7 7 7 5
17 18 19 19 19 19 18 18 18 19 20 15 6 6 3 4 5 6 6 3 2 2 4 3 2 3 3 2 3 3 1 2 3 2 1 3 4 7 9 9 6 4 6 5 4 4 4 3 1 3 2 2 4 5 4 7 6 8 7 8 8 6 9 11 11 11 10 10 8 4 4 5 9 12 11 10 9 9 9 9 9 9 9 8 8 8 8
17 18 19 19 19 18 19 17 18 19 18 6 2 1 1 2 5 7 7 5 2 2 3 2 3 1 2 2 2 3 4 4 4 5 7 7 8 9 8 7 7 6 5 4 3 5 1 3 2 2 2 2 5 2 3 3 6 7 8 11 11 9 9 7 6 7 7 7 8 8 9 9 8 7 6 6 5 6 8 10 9 8 9 8 7 7 6
17 18 19 19 19 18 17 17 17 19 14 3 2 1 0 1 1 5 8 5 3 2 1 3 3 0 2 3 1 5 5 5 5 5 7 6 5 4 4 5 5 5 6 3 3 2 2 3 1 3 4 7 4 3 4 4 7 6 6 8 8 10 11 11 9 8 8 7 7 6 6 6 5 7 8 7 6 5 4 5 7 7 6 7 7 7 7
17 18 18 19 18 18 17 15 15 14 7 5 3 1 1 1 3 7 10 5 3 2 4 3 1 1 0 2 2 2 3 2 2 3 3 3 6 7 9 6 4 4 3 4 3 3 4 3 4 5 5 4 6 4 4 5 7 7 8 10 7 8 8 9 8 7 6 6 7 7 6 4 5 6 5 5 6 6 6 5 5 6 7 6 7 7 6
17 18 18 18 18 17 17 15 15 10 3 5 7 6 8 7 11 10 7 3 3 0 2 2 2 1 1 1 2 3 2 1 3 0 3 3 4 2 5 4 5 5 7 6 3 3 1 3 4 7 4 3 4 4 4 5 5 7 9 9 7 7 8 6 6 5 6 6 4 6 6 7 7 6 5 5 4 4 4 5 5 5 4 5 4 4 4
17 18 19 19 18 18 16 15 16 13 7 2 1 1 2 4 6 7 6 1 0 1 1 2 1 1 0 3 1 1 0 1 3 1 3 1 2 2 2 1 4 3 3 5 2 4 3 4 6 6 4 5 3 4 5 6 8 8 6 6 6 6 5 5 5 6 7 8 6 6 5 5 5 5 6 5 4 3 3 2 4 6 4 4 5 4 2
18 18 19 19 18 16 15 11 5 1 1 3 0 1 3 10 7 7 2 2 3 1 1 1 2 3 1 1 1 1 1 0 2 1 3 0 2 2 1 2 1 4 1 1 3 3 3 1 3 5 6 4 4 3 4 8 8 7 5 5 5 5 4 6 5 7 6 6 7 6 6 6 7 5 5 4 3 2 3 5 4 4 5 5 4 4 5
18 19 19 19 18 10 5 2 1 2 1 0 0 3 6 8 7 4 1 1 2 0 1 1 1 3 3 3 2 0 1 3 2 1 1 1 1 0 2 2 4 1 1 2 4 2 4 4 2 4 1 2 2 2 6 10 10 8 6 5 3 4 6 6 7 6 8 8 8 6 6 6 7 6 5 4 3 4 3 2 4 4 5 5 5 5 5
18 19 20 15 6 0 1 1 0 1 1 1 6 9 9 4 2 1 1 1 0 1 1 0 1 2 4 3 0 1 1 2 1 2 1 2 1 1 2 2 2 0 2 3 3 2 2 1 4 2 1 5 4 6 8 8 8 8 6 6 8 8 8 6 6 6 7 8 8 6 6 6 5 4 3 5 5 4 5 5 5 5 5 5 5 5 5
18 16 4 2 1 1 0 1 1 1 5 5 5 2 3 4 0 1 0 0 1 1 1 0 0 1 1 5 2 1 1 2 0 2 1 0 2 0 1 2 1 1 3 1 0 1 2 3 2 4 4 5 6 4 4 5 6 5 4 6 8 8 9 7 7 5 5 3 2 2 4 6 5 4 3 4 5 5 2 1 4 4 6 6 5 5 5
8 3 1 1 1 1 0 2 1 4 2 1 1 1 0 0 0 0 1 0 0 1 1 0 2 4 5 4 1 1 1 2 2 1 1 2 2 0 1 2 2 1 1 1 1 3 2 2 2 3 3 2 5 6 7 6 6 7 7 5 5 6 5 5 4 5 4 5 7 6 5 4 4 3 3 3 4 5 4 1 3 6 6 6 4 4 4
1 1 0 1 0 1 1 1 2 2 1 1 0 1 0 0 1 1 1 0 1 1 1 1 1 3 4 6 4 1 2 1 3 3 2 1 1 2 1 1 0 1 2 1 1 0 3 2 1 2 3 4 4 4 6 7 7 5 5 4 5 7 6 5 4 6 6 5 6 4 3 4 5 4 2 3 5 4 4 3 4 6 6 5 5 4 1
1 3 1 1 3 2 1 1 0 1 0 0 0 1 0 0 1 0 0 1 0 0 1 1 0 3 3 4 2 1 1 1 1 2 3 2 2 1 1 0 0 1 1 1 1 1 1 2 1 3 5 5 5 5 6 6 5 5 4 5 7 8 6 5 4 4 6 5 5 4 5 6 5 4 4 4 2 2 2 1 2 4 5 5 4 2 2
1 2 3 6 6 7 1 0 0 0 0 0 1 0 0 1 0 1 0 1 0 0 2 2 1 2 2 1 2 2 1 1 0 1 2 1 1 1 1 1 0 1 1 1 2 2 3 2 4 3 4 6 6 6 6 5 5 5 5 5 5 6 5 5 6 7 8 7 6 6 5 5 3 3 4 5 4 3 2 2 4 6 6 5 4 2 2
15 10 5 3 2 0 0 0 1 0 1 1 2 1 0 0 1 1 0 0 1 0 1 1 2 1 3 2 4 2 1 1 2 1 2 0 1 0 1 0 0 1 1 1 1 1 3 3 3 4 7 7 8 8 7 6 5 6 5 5 4 3 5 6 7 6 5 5 5 5 4 3 3 2 0 2 1 1 2 4 4 4 4 3 2 1 2
5 3 2 2 0 1 0 0 0 2 2 0 1 1 1 0 1 0 0 1 1 1 2 3 2 1 3 1 2 0 2 2 1 1 1 0 1 1 0 1 0 1 1 1 0 2 3 1 5 9 8 8 6 8 9 7 6 6 4 3 4 6 6 4 4 4 5 4 5 4 1 1 1 0 1 1 1 1 3 3 3 5 5 5 4 3 1
2 0 0 1 1 0 1 2 2 1 2 1 1 2 2 3 4 4 4 3 1 5 4 3 3 3 5 2 2 2 1 0 1 1 0 0 2 0 0 2 1 0 0 1 1 1 2 2 3 8 9 8 8 9 7 7 8 6 6 3 5 5 5 4 4 4 5 4 5 3 1 1 2 2 1 1 3 4 3 4 4 5 4 4 3 3 2
1 1 1 3 3 3 0 1 1 1 1 1 2 5 4 6 4 3 2 2 4 5 4 4 5 7 4 1 2 2 0 1 1 0 0 0 1 0 1 0 1 1 0 1 1 2 6 7 7 9 8 8 8 8 9 8 7 7 7 5 4 4 5 5 5 4 4 4 4 4 3 3 2 2 1 1 2 1 2 4 3 4 4 2 1 0 3
2 1 1 0 1 1 1 1 3 3 2 4 5 6 8 7 3 4 3 4 6 4 5 5 5 5 5 1 1 0 0 0 1 0 1 1 1 0 1 0 0 0 1 1 1 2 5 5 8 8 7 10 11 10 8 7 8 7 6 6 5 5 4 3 4 1 1 4 3 2 0 0 1 1 3 3 3 2 4 4 5 4 4 1 1 1 3
1 0 0 1 2 1 3 4 3 3 5 5 5 4 2 4 4 3 3 4 4 6 8 6 5 3 1 2 2 2 1 1 2 1 0 1 0 1 0 1 0 1 0 2 2 5 8 7 8 7 9 10 9 9 8 8 7 7 8 7 6 6 5 5 3 2 5 5 4 3 2 3 4 3 3 1 3 2 4 4 2 1 3 1 1 2 2
2 1 1 1 1 1 3 4 3 4 7 7 4 4 4 6 7 4 5 3 6 5 5 6 4 1 1 0 1 1 2 0 1 1 0 1 1 1 1 1 1 1 1 2 2 10 9 8 7 10 10 10 7 7 7 7 6 7 6 5 5 6 4 3 4 5 5 3 1 1 3 4 3 4 5 3 3 3 1 1 1 2 3 4 4 2 1
2 1 1 1 1 3 5 4 5 5 1 1 4 4 4 6 7 3 1 2 4 5 5 5 2 1 1 2 1 1 1 0 1 0 1 1 1 1 0 1 1 2 2 2 3 9 7 8 9 10 9 9 7 8 8 7 7 7 7 6 5 3 3 4 4 3 3 3 3 4 3 2 1 3 2 1 0 1 2 3 1 0 1 4 3 2 2
0 1 2 2 3 2 1 2 3 1 1 2 1 5 6 5 3 2 1 2 3 4 2 1 1 1 1 1 1 1 0 1 2 1 2 2 1 1 2 2 3 3 2 2 10 10 9 9 8 9 8 7 7 8 8 7 7 5 5 5 5 4 4 4 4 2 1 1 3 5 2 3 5 2 2 3 3 2 3 3 2 1 3 3 2 1 1
1 1 2 2 4 7 7 7 5 2 5 3 1 3 7 5 4 3 2 4 4 2 2 1 1 1 1 1 1 1 1 1 1 2 2 1 1 2 2 5 4 2 7 11 7 6 7 7 9 9 9 10 10 8 8 6 4 3 4 5 5 4 3 3 4 3 2 1 0 1 0 0 2 2 2 2 2 3 4 6 5 1 3 4 2 1 0
Wind_Direction
330 333 333 331 330 338 342 339 340 339 337 332 359 317 227 181 277 275 305 139 156 156 277 221 220 237 256 266 243 186 124 1 33 316 80 302 12 5 344 19 13 9 5 343 24 27 26 67 66 72 61 64 30 336 11 27 57 88 3 347 344 24 54 19 316 335 343 12 350 8 19 48 54 23 55 49 21 45 156 163 204 121 315 55 3 76 245
334 335 334 332 338 344 341 339 342 338 352 332 315 277 266 41 239 289 206 164 192 208 209 232 226 247 264 266 329 19 346 299 330 354 207 247 158 346 307 346 86 359 9 358 4 29 84 80 107 56 56 60 338 333 39 29 46 45 293 82 271 50 327 112 37 357 342 354 2 2 14 47 48 357 353 52 59 12 121 99 48 75 13 191 116 163 196
336 342 336 343 344 342 338 340 338 338 342 339 323 299 341 350 235 233 197 191 206 234 232 309 288 292 273 304 245 148 284 88 316 1 315 10 3 94 342 339 29 352 22 2 29 345 53 117 85 118 86 72 320 46 61 58 67 45 39 20 167 98 178 80 108 127 128 289 332 318 333 335 309 153 317 28 42 44 41 26 0 85 324 39 96 100 135
335 343 340 344 344 340 338 339 335 337 340 344 260 277 288 139 87 26 142 287 213 264 285 281 293 306 266 2 312 258 91 27 25 11 356 37 22 46 334 345 317 35 30 6 6 333 59 66 166 122 128 127 54 65 64 73 78 72 40 0 29 102 73 90 125 136 172 194 193 228 132 324 75 308 348 10 58 35 81 101 75 137 262 52 317 146 131
338 338 345 344 342 340 340 336 337 340 342 355 341 286 270 321 277 160 185 182 245 265 251 249 237 256 201 96 256 253 84 322 113 25 329 31 18 343 345 296 0 78 61 356 7 2 29 8 9 25 130 112 109 106 96 68 64 76 67 32 38 64 55 2 90 40 142 146 183 149 144 88 6 54 42 42 40 54 65 79 176 194 90 37 326 73 108
343 342 342 342 341 341 338 334 337 339 338 351 312 304 191 74 274 306 262 174 229 253 281 228 258 234 206 239 327 318 114 58 52 342 341 30 38 43 302 67 352 71 133 121 67 18 49 31 16 8 30 86 81 79 55 92 66 49 38 34 81 107 104 17 73 350 307 293 180 136 77 59 70 62 55 52 44 47 62 39 29 78 122 173 127 62 76
342 339 341 340 339 338 337 337 341 339 337 333 305 322 179 264 313 258 308 320 224 185 221 162 212 246 175 20 26 297 126 111 148 181 264 309 97 296 57 323 330 286 218 111 56 45 78 0 16 34 355 53 99 65 67 40 86 72 45 21 48 74 342 158 129 159 259 114 340 68 89 73 56 46 60 59 54 50 50 44 30 52 74 91 93 87 76
344 344 342 338 338 338 341 341 346 340 333 321 262 233 286 213 9 336 0 344 308 254 237 166 199 98 82 74 287 157 54 123 203 120 61 26 51 57 25 263 309 347 85 141 122 167 117 140 91 355 93 357 51 121 127 150 95 102 68 109 337 90 265 95 80 73 11 66 90 84 80 83 65 31 23 51 60 59 52 50 28 32 67 86 82 86 83
348 345 343 342 339 340 342 343 346 329 338 267 230 237 189 298 295 34 323 305 244 219 170 117 94 84 11 57 256 104 144 221 80 73 98 131 58 14 33 2 13 358 55 48 60 87 109 93 113 245 104 106 133 119 261 131 137 155 119 67 324 83 36 28 65 75 39 84 99 97 97 83 73 41 19 17 44 53 31 53 32 32 40 101 95 63 78
348 343 342 343 340 341 341 345 341 336 328 258 278 264 143 284 224 175 184 276 279 290 154 126 89 65 257 156 202 155 172 107 82 40 17 39 66 29 22 28 51 34 56 38 10 9 42 44 8 352 349 355 351 21 26 96 111 72 88 148 105 118 86 59 48 81 83 57 103 111 96 81 49 19 351 357 72 84 70 56 42 25 7 63 59 77 69
347 345 345 341 341 339 341 345 345 350 347 3 341 294 332 309 340 333 153 174 285 272 174 167 120 167 158 90 92 20 59 34 46 96 16 357 58 61 32 41 73 66 43 351 9 11 27 5 342 8 350 339 337 326 338 319 146 191 176 115 149 113 106 128 111 120 196 134 123 119 74 80 100 358 326 351 98 76 68 51 44 29 28 78 74 92 92
348 346 343 340 339 339 340 341 346 350 346 325 297 279 265 290 296 266 239 31 286 167 104 106 130 216 112 54 39 50 40 62 76 67 45 15 49 54 24 7 78 53 320 305 22 346 346 338 301 263 292 295 287 277 250 280 9 106 67 79 73 70 87 163 149 107 174 218 110 71 73 90 131 38 35 64 90 87 84 66 47 39 36 67 92 90 88
344 342 342 341 340 339 338 338 341 343 342 322 293 266 300 333 293 278 289 145 265 56 64 115 159 93 84 105 96 65 61 60 47 43 55 26 356 79 40 68 61 71 355 52 352 351 9 296 294 209 223 216 226 180 54 50 40 31 39 42 84 98 95 29 17 154 94 77 21 114 111 132 127 76 46 48 84 84 90 59 41 35 33 41 73 92 107
345 344 345 342 340 338 339 339 340 340 336 329 296 282 290 299 311 318 358 16 321 15 1 70 57 58 62 70 85 79 69 64 44 46 17 47 18 10 40 61 73 69 43 16 291 11 19 5 3 62 321 72 305 46 359 69 48 40 36 30 40 49 53 75 353 32 112 72 69 87 125 118 19 29 19 28 16 8 27 99 41 24 26 34 68 74 95
347 345 344 342 342 341 340 339 338 338 335 325 299 284 272 255 245 280 313 319 317 318 33 57 82 87 66 52 72 109 101 128 86 357 96 28 121 7 49 71 51 46 20 63 323 100 182 111 12 63 350 42 50 299 311 36 58 45 42 6 57 46 93 206 97 322 112 131 104 120 178 191 132 35 0 0 31 80 264 113 97 23 23 34 53 70 75
346 346 345 345 344 342 338 338 337 337 337 332 299 271 266 252 251 240 228 223 43 33 344 35 41 50 88 59 69 358 155 188 164 178 148 195 167 120 71 71 76 51 291 231 236 77 42 86 24 70 80 118 247 12 333 13 28 19 12 17 68 34 64 82 123 165 53 72 124 105 155 88 52 336 324 323 325 299 169 110 82 31 13 28 38 62 54
347 348 348 346 346 342 339 337 335 337 332 338 327 301 291 295 325 312 17 324 111 129 13 35 19 13 46 47 24 357 24 55 83 108 189 250 149 120 118 118 63 119 275 37 25 58 38 46 56 103 30 40 67 225 296 60 7 347 351 1 41 36 6 33 42 40 130 134 82 110 41 65 350 314 303 313 295 278 46 180 155 42 25 27 37 32 12
349 350 348 347 345 343 340 337 335 333 332 329 309 282 273 290 286 354 289 223 278 33 14 35 42 32 29 48 87 324 9 4 348 3 148 178 115 135 143 118 202 239 328 50 63 59 51 74 72 83 72 347 100 52 64 2 35 351 347 327 10 6 340 49 125 69 57 91 98 112 121 133 286 306 304 304 321 111 163 196 77 59 53 44 59 50 34
351 350 350 348 346 343 339 337 336 333 332 331 317 251 245 244 250 197 246 283 80 95 351 67 70 60 10 16 34 1 42 75 33 59 338 11 318 23 54 80 68 22 5 91 60 83 90 338 45 86 90 7 28 71 19 50 324 14 16 17 20 12 328 8 57 41 39 23 82 98 96 218 289 297 285 327 270 167 138 102 68 77 73 70 72 74 58
351 352 351 349 347 344 339 336 334 333 331 335 341 271 275 289 280 213 135 45 64 67 11 32 40 70 45 39 30 27 6 26 19 77 25 316 315 357 47 16 337 65 15 36 50 16 91 45 80 76 49 70 14 78 62 72 52 23 16 49 58 344 5 46 47 295 97 29 105 110 55 27 339 302 344 0 78 93 106 95 78 92 98 89 78 76 73
352 352 351 349 347 343 339 335 334 331 330 329 331 294 319 279 291 302 171 167 103 72 4 17 48 47 61 58 37 48 63 67 32 25 287 265 285 73 99 191 246 73 117 102 125 7 113 31 335 59 142 118 225 51 121 155 77 34 30 88 77 309 149 86 97 296 82 56 63 62 27 273 351 41 83 27 74 124 114 109 100 95 92 92 93 74 84
354 352 351 349 346 342 338 335 332 330 326 328 326 216 255 288 326 352 62 79 86 115 142 70 55 67 58 84 99 72 59 66 69 101 1 8 336 86 166 177 111 77 93 95 66 58 24 149 38 80 93 66 58 86 134 75 47 33 33 8 76 2 82 326 104 341 81 87 92 150 157 63 49 63 78 74 66 72 84 98 106 110 101 100 94 94 79
352 351 349 347 344 341 338 334 333 329 331 339 357 292 277 298 2 12 60 67 28 43 234 74 87 80 94 76 81 94 101 141 147 41 87 93 6 18 59 41 46 28 81 88 154 154 172 148 157 150 99 75 119 85 44 67 99 349 59 349 110 147 99 106 69 72 84 73 94 131 93 86 82 70 74 83 90 92 100 105 108 99 103 100 102 101 94
352 349 347 344 342 342 339 336 335 335 338 341 336 246 314 42 10 8 31 67 111 59 1 2 56 13 43 57 30 104 111 82 28 87 181 141 118 24 357 1 342 27 63 186 165 134 186 152 123 99 112 130 117 91 117 65 58 177 105 30 18 57 140 68 93 168 127 80 105 104 106 106 100 94 90 86 83 90 92 92 90 97 97 94 91 95 102
349 346 345 343 341 341 339 337 336 335 337 338 337 246 245 20 14 40 49 95 30 82 115 324 10 60 56 342 151 101 108 127 116 79 31 32 93 120 137 223 198 120 352 239 154 70 54 95 61 60 85 46 90 96 108 113 143 210 92 338 163 59 79 88 82 100 81 128 142 126 122 114 111 107 103 101 100 96 91 91 101 105 106 109 118 126 127
346 343 342 342 341 340 338 337 335 333 342 341 347 347 344 64 340 14 3 93 118 108 99 82 14 343 126 101 63 63 37 39 39 41 77 74 54 142 187 269 22 98 225 25 59 76 78 58 67 57 90 84 47 114 127 134 152 144 123 192 198 166 218 83 156 101 115 123 126 127 116 105 105 107 105 113 122 123 128 131 130 135 140 150 154 163 157
343 342 341 341 341 339 338 335 336 340 339 338 334 329 266 66 41 52 88 330 77 37 49 96 221 124 61 51 28 58 57 67 26 41 27 21 27 6 31 31 66 58 63 49 54 84 57 68 61 69 54 83 66 66 74 77 93 105 88 80 84 86 96 121 116 110 115 128 131 138 120 123 124 129 139 140 138 135 131 134 135 145 147 154 161 162 168
342 342 340 339 339 339 337 336 337 340 338 336 330 336 334 72 64 51 34 71 98 159 158 109 75 82 316 74 58 47 18 19 78 92 59 47 39 46 66 72 65 50 25 54 37 26 48 73 83 101 90 37 67 53 43 70 67 62 63 104 119 119 148 135 103 104 112 110 103 97 110 124 144 150 151 152 155 148 149 147 150 157 164 169 158 162 178
342 340 339 338 337 338 337 337 338 340 340 342 332 336 353 52 77 46 25 6 54 76 85 84 31 23 65 43 40 84 121 120 54 40 43 74 71 66 59 52 60 79 77 69 85 81 72 62 87 83 108 194 88 88 63 64 62 69 65 66 76 84 100 99 107 104 103 109 120 115 98 115 135 145 153 152 155 151 147 153 159 164 170 167 168 172 179
340 339 337 337 336 336 337 336 336 338 336 324 326 344 39 7 40 30 360 350 7 61 90 94 63 311 324 32 62 77 72 36 28 44 57 55 63 63 68 67 51 54 79 99 110 85 55 108 20 52 71 69 89 128 73 93 84 73 61 62 62 65 71 84 90 98 105 97 93 91 89 84 84 93 100 105 113 128 142 152 161 168 171 170 166 167 171
338 337 336 334 333 335 334 334 332 334 335 319 1 43 49 111 311 358 343 334 6 84 95 82 98 351 20 304 83 58 60 44 35 42 45 42 30 45 61 71 61 69 70 38 46 69 65 36 31 54 63 61 82 87 119 99 93 88 74 77 77 80 85 86 87 90 97 94 94 95 99 102 100 93 91 108 115 118 122 137 155 170 170 155 155 162 177
336 334 333 332 331 331 329 329 330 336 332 6 55 119 198 219 256 305 310 301 326 59 81 89 63 25 166 314 313 167 123 117 85 36 26 16 44 34 50 51 75 47 100 91 68 54 35 24 60 63 71 64 75 79 61 71 90 100 99 85 83 89 95 100 106 112 113 121 117 109 105 104 92 112 146 153 142 149 146 152 136 128 146 154 160 165 174
335 332 330 328 328 327 324 321 320 327 302 282 275 280 280 272 275 277 285 329 42 77 128 90 115 175 117 244 321 3 27 22 53 49 30 345 88 31 67 59 66 55 21 61 10 87 20 69 46 62 37 47 84 93 85 84 104 107 104 111 119 125 128 142 137 133 133 140 124 116 116 119 134 147 148 135 130 131 137 144 159 141 127 124 124 129 148
331 330 327 325 324 323 317 312 310 303 284 267 51 145 209 236 304 311 340 7 262 265 87 108 107 80 101 308 50 267 347 13 111 55 78 333 101 70 113 74 22 75 0 98 74 66 25 62 69 86 50 45 50 80 93 115 118 118 120 127 132 129 138 128 111 95 82 79 83 99 124 133 118 94 78 92 118 154 158 152 119 119 124 118 121 141 170
327 326 324 320 318 313 308 308 328 350 317 272 20 111 326 324 323 290 344 55 46 348 63 36 98 88 54 337 123 228 164 94 109 153 117 227 16 108 44 77 352 83 179 45 58 98 98 76 124 67 95 101 61 87 112 130 120 122 128 145 152 131 102 87 92 108 108 108 103 107 114 107 99 112 142 178 201 164 94 91 79 73 78 69 58 31 34
325 321 319 315 307 299 297 288 225 276 275 295 267 316 329 317 315 318 35 98 133 133 6 159 110 147 156 125 128 168 260 79 113 78 79 130 1 20 107 104 69 30 198 86 121 83 108 170 70 105 142 72 82 147 158 148 149 152 156 165 167 124 118 128 132 126 127 130 140 157 151 137 137 169 185 153 109 91 97 76 74 76 91 85 68 57 47
319 318 314 304 290 272 280 227 204 42 223 269 293 311 293 312 307 326 337 91 26 120 142 267 114 200 145 158 101 298 10 100 284 59 345 77 131 305 55 51 103 272 44 54 75 100 201 130 95 112 59 113 121 102 110 121 121 126 134 125 117 108 102 102 102 106 121 149 159 170 163 147 151 160 129 113 121 84 65 77 93 88 78 73 58 43 26
314 311 310 317 341 348 343 339 300 263 354 338 328 351 4 28 343 317 353 12 247 105 278 224 108 164 80 88 136 265 45 118 108 105 14 77 74 347 72 101 188 82 86 91 354 318 74 48 78 103 97 117 128 104 93 99 110 102 96 122 125 124 132 142 152 146 143 138 121 91 90 99 88 64 88 112 99 104 119 148 144 118 95 85 78 60 35
301 290 251 248 254 277 176 213 343 2 342 293 52 55 352 9 15 9 268 238 58 350 266 106 214 128 101 83 76 353 118 159 91 69 103 297 94 331 20 87 302 72 63 72 302 13 67 14 48 52 77 84 88 108 107 95 85 95 84 73 115 120 99 92 99 107 116 134 130 121 112 96 99 81 49 101 138 139 145 142 109 116 113 101 93 78 50
259 261 268 260 251 252 336 358 342 16 35 36 292 99 330 337 84 293 282 30 333 299 32 358 273 108 125 133 134 23 290 91 131 167 140 41 353 146 237 83 152 91 131 122 229 354 105 112 47 83 88 96 100 92 85 91 84 72 78 68 61 75 91 104 95 93 95 104 105 104 103 94 93 99 81 65 69 64 39 49 91 112 127 139 136 130 159
325 301 327 348 336 337 197 176 133 1 52 300 345 315 77 353 271 178 66 315 151 251 225 206 17 77 90 114 112 128 281 114 226 139 105 97 255 68 57 118 212 89 128 121 256 77 94 78 93 131 191 157 121 104 90 85 95 101 85 82 94 105 105 99 89 89 109 108 89 81 79 71 57 61 66 63 65 119 125 85 73 104 93 95 96 85 50
6 256 302 302 277 267 299 34 11 12 338 325 100 263 228 178 340 343 135 146 202 190 7 346 52 77 56 69 130 114 338 307 77 79 101 69 299 109 165 99 53 125 131 216 144 99 115 142 163 174 176 137 129 117 109 107 102 99 92 83 84 90 91 89 87 72 72 74 71 75 65 78 61 35 76 68 35 23 64 78 101 115 120 119 104 86 63
289 255 197 255 248 261 121 5 264 127 105 352 35 30 343 82 216 166 186 296 304 92 238 253 114 138 93 67 31 25 165 250 69 19 68 161 278 53 89 66 93 82 224 131 103 138 158 165 130 182 156 137 139 132 129 130 124 111 121 134 144 121 101 90 87 79 81 86 92 82 54 45 81 28 56 120 127 336 20 79 80 85 106 113 112 88 80
256 205 190 220 143 23 79 272 315 44 358 144 129 156 215 292 290 335 174 222 222 91 165 135 211 108 101 54 118 327 22 3 7 61 47 342 88 57 63 81 92 254 291 67 86 157 191 119 161 160 147 140 136 131 137 147 139 131 113 86 97 112 104 96 91 86 98 114 106 108 102 349 83 154 45 43 117 110 61 32 69 87 77 71 66 62 49
326 3 170 31 10 262 59 314 306 135 209 221 175 203 168 189 204 197 199 214 135 174 175 136 153 116 103 73 45 12 101 142 308 94 211 86 57 17 121 158 190 80 117 186 225 101 64 90 116 127 141 147 149 148 139 131 132 139 135 119 87 97 110 129 134 141 148 138 130 124 115 53 46 6 12 34 68 80 82 77 74 70 60 59 48 24 339
246 161 76 75 351 308 158 193 165 231 265 141 219 212 188 224 205 192 192 128 126 147 151 142 99 94 82 80 134 201 293 97 66 130 129 68 101 84 300 332 89 109 305 178 185 173 154 160 152 149 159 152 140 131 131 137 130 124 127 143 137 103 77 77 76 73 75 83 82 84 66 34 355 313 315 93 92 71 97 134 131 122 107 75 38 327 296
283 324 135 87 109 241 236 193 219 216 189 192 221 229 226 202 167 150 152 116 142 158 112 93 104 126 129 177 45 26 40 92 106 4 57 67 99 241 319 87 246 150 159 202 220 140 145 168 155 161 146 133 132 132 136 132 136 142 138 129 122 120 113 90 82 76 100 102 86 80 66 244 280 44 49 26 22 49 58 60 70 83 90 98 83 333 298
277 227 79 124 230 188 209 245 233 249 255 235 196 204 104 92 102 89 93 122 127 89 99 97 91 98 42 338 65 156 135 47 70 353 3 122 35 42 24 8 46 241 194 163 238 130 146 155 159 147 134 128 132 133 138 139 144 135 132 140 137 132 136 134 150 89 66 61 56 35 17 24 20 36 60 30 314 350 91 105 111 129 135 162 207 235 241
274 280 190 218 202 177 241 246 237 252 248 228 185 153 131 93 83 77 79 75 80 98 119 123 158 94 109 127 88 59 65 5 94 235 282 46 95 175 150 182 179 223 266 196 143 131 151 146 136 127 125 126 126 118 120 122 124 118 122 120 124 121 125 123 122 107 92 72 19 8 43 53 29 7 339 353 71 82 60 41 218 231 197 194 206 208 244
228 267 343 277 296 273 256 253 240 243 276 63 111 96 77 82 91 58 11 75 91 91 68 51 52 91 157 119 91 72 98 215 121 129 81 112 167 184 121 164 229 191 232 251 108 136 136 129 124 125 127 130 125 118 110 107 101 101 103 106 102 102 104 99 100 110 135 161 129 95 87 39 336 299 299 63 168 117 22 324 350 12 108 97 84 58 5
292 225 231 203 192 244 196 226 235 194 117 281 91 119 112 112 102 98 334 80 73 68 57 137 173 115 79 49 58 115 213 101 89 160 151 166 175 175 179 186 218 228 243 84 120 135 129 130 123 127 118 119 113 110 107 106 105 110 115 120 134 140 132 125 124 117 116 125 128 129 167 214 232 205 111 53 24 14 342 310 283 304 121 111 108 82 331
218 225 256 262 245 248 260 276 280 191 162 188 91 101 108 113 112 75 26 65 63 79 161 217 104 81 64 121 203 130 47 66 136 124 135 248 168 159 194 196 211 204 120 106 117 105 105 110 118 119 117 113 113 110 109 107 105 120 136 130 115 105 115 132 135 143 136 123 108 135 25 93 93 80 35 345 306 330 318 296 298 126 103 96 95 57 300